[[{"header":{"parameterUnit":"m.s-1","parameterCategory":1,"la1":30.2991,"la2":30.254,"lo1":-89.0895,"lo2":-89.0444,"dy":0.0017,"dx":0.0017,"nx":28,"ny":28,"refTime":"2024-10-14T21:00:00:Z","depth":0,"parameterNumber":2,"parameterNumberName":"U-component_of_WINDS"},"data":[0,0,0,0,0,0,0,0,0,0,0,0,0,0,0,0,0,0,0,0,0,0,0,0,0,0,0,0,0,0,0,0,0,0,0,0,0,0,0,0,0,0,0,0,0,0,0,0,0,0,0,0,0,0,0,0,0,0,-0.2629,-0.2629,0,-0.2616,-0.2616,-0.2616,-0.2656,-0.2657,-0.2658,-0.266,-0.264,-0.2638,-0.2636,0,0,0,0,0,0,0,0,0,0,0,0,0,-0.2684,-0.2683,-0.2629,-0.2629,-0.2629,-0.2616,-0.2616,-0.2615,-0.2656,-0.2657,-0.2659,-0.266,-0.264,-0.2638,-0.2636,0,0,0,0,0,0,0,0,0,0,0,0,0,-0.2664,-0.2682,-0.2629,-0.2647,-0.2649,-0.2616,-0.2616,-0.2615,-0.2655,-0.2657,-0.2659,-0.2661,-0.2641,-0.2638,-0.2636,-0.2583,0,0,-0.2628,-0.2627,0,0,0,0,0,0,0,0,-0.2665,-0.2662,-0.2645,-0.2646,-0.2648,-0.264,-0.2628,-0.2604,-0.2655,-0.2653,-0.266,-0.2662,-0.2638,-0.2636,-0.2629,-0.2582,-0.2581,-0.2628,-0.2626,-0.2625,-0.2625,0,0,0,0,0,0,0,-0.2666,-0.2663,-0.2624,-0.2645,-0.2646,-0.2655,-0.2654,-0.2623,-0.2635,-0.2653,-0.2656,-0.2654,-0.2639,-0.2631,-0.2629,-0.2581,-0.2628,-0.2626,-0.2624,-0.2623,-0.2489,-0.2487,0,0,0,0,0,0,-0.2666,-0.2664,-0.2624,-0.2623,-0.2661,-0.2652,-0.2651,-0.264,-0.2635,-0.2636,-0.2653,-0.2656,-0.2635,-0.2631,-0.2628,-0.2565,-0.2625,-0.2623,-0.2622,-0.2491,-0.2489,-0.2486,0,0,0,0,0,0,-0.2667,-0.2662,-0.2625,-0.2644,-0.264,-0.2649,-0.2636,-0.2639,-0.2631,-0.2635,-0.2636,-0.2643,-0.2636,-0.2632,-0.2594,-0.2565,-0.2622,-0.262,-0.2494,-0.249,-0.2488,-0.2439,0,0,0,0,0,0,-0.2669,-0.2663,-0.2643,-0.2644,-0.2639,-0.2592,-0.2635,-0.2637,-0.2628,-0.2632,-0.2626,-0.2627,-0.2637,-0.2598,-0.2592,-0.2562,-0.2618,-0.2496,-0.2492,-0.2489,-0.2443,-0.2434,-0.2427,0,0,0,0,0,-0.2671,-0.2629,-0.2642,-0.2637,-0.2616,-0.2591,-0.2588,-0.2602,-0.2625,-0.2605,-0.2608,-0.2627,-0.257,-0.2594,-0.2587,-0.2556,-0.2498,-0.2493,-0.2489,-0.2446,-0.2436,-0.2427,0,0,0,0,0,0,-0.2622,-0.2629,-0.2644,-0.2602,-0.2596,-0.2597,-0.2573,-0.259,-0.2576,-0.258,-0.2597,-0.2595,-0.2554,-0.2552,-0.2578,-0.2505,-0.2537,-0.2531,-0.2507,-0.2498,-0.249,-0.249,-0.2615,0,0,0,0,0,-0.2607,-0.2588,-0.2594,-0.2556,-0.2553,-0.2563,-0.2553,-0.2565,-0.2558,-0.2555,-0.2554,-0.2545,-0.2526,-0.2512,-0.2493,-0.2443,-0.2442,-0.2419,-0.2411,-0.2405,-0.2399,-0.2371,-0.2361,-0.2471,-0.2471,-0.2471,0,0,-0.2575,-0.2576,-0.2563,-0.2547,-0.2543,-0.2521,-0.2561,-0.2536,-0.2519,-0.255,-0.2515,-0.2515,-0.2506,-0.2462,-0.2442,-0.2459,-0.2368,-0.2399,-0.2394,-0.2391,-0.2365,-0.2355,-0.2346,-0.2468,-0.2469,-0.2469,0,0,-0.2505,-0.2504,-0.2473,-0.2469,-0.2464,-0.2472,-0.2464,-0.2464,-0.2465,-0.2431,-0.2454,-0.2434,-0.2399,-0.2392,-0.2384,-0.2312,-0.2329,-0.2306,-0.2263,-0.2237,-0.2228,-0.222,-0.2194,-0.2184,-0.23,-0.23,-0.23,0,-0.2464,-0.2434,-0.2453,-0.2427,-0.2419,-0.2449,-0.2416,-0.2411,-0.24,-0.2392,-0.2412,-0.2369,-0.2365,-0.232,-0.2303,-0.2295,-0.2286,-0.2306,-0.2228,-0.2221,-0.2214,-0.2188,-0.2178,-0.2297,-0.2297,-0.2298,-0.2298,0,-0.2384,-0.2363,-0.2337,-0.2328,-0.2317,-0.2287,-0.2301,-0.2287,-0.23,-0.2305,-0.2269,-0.2267,-0.2248,-0.2239,-0.225,-0.2194,-0.2205,-0.2226,-0.2259,-0.22,-0.2176,-0.2167,-0.2293,-0.2294,-0.2295,-0.2296,0,0,-0.228,-0.2284,-0.2274,-0.2271,-0.2269,-0.2251,-0.2223,-0.2207,-0.2195,-0.2186,-0.2162,-0.2132,-0.2152,-0.2143,-0.2154,-0.2131,-0.2073,-0.2155,-0.2155,-0.2139,-0.2011,-0.1993,-0.1982,-0.2086,-0.2084,-0.2083,-0.2011,0,-0.221,-0.2164,-0.2181,-0.2132,-0.2112,-0.2142,-0.2117,-0.2112,-0.2116,-0.2098,-0.2102,-0.2081,-0.211,-0.2104,-0.2083,-0.2085,-0.2048,-0.2091,-0.2061,-0.2059,-0.206,-0.197,-0.1951,-0.1884,-0.2002,-0.2,-0.1999,0,-0.2122,-0.2112,-0.2062,-0.2064,-0.2056,-0.2034,-0.2021,-0.2005,-0.1999,-0.2004,-0.1995,-0.2011,-0.1982,-0.2016,-0.1975,-0.2004,-0.1993,-0.1992,-0.199,-0.1986,-0.2024,-0.1962,-0.1863,-0.1852,-0.1985,-0.1986,-0.1987,0,-0.205,-0.2024,-0.1991,-0.1987,-0.1989,-0.1972,-0.1972,-0.1969,-0.1959,-0.1947,-0.194,-0.1925,-0.1915,-0.1902,-0.1913,-0.1938,-0.187,-0.1906,-0.1871,-0.187,-0.1853,-0.1854,-0.1749,-0.1849,-0.1849,-0.185,-0.185,0,-0.1968,-0.1936,-0.1959,-0.1938,-0.1903,-0.1923,-0.1886,-0.1889,-0.1886,-0.1865,-0.189,-0.1869,-0.1886,-0.1867,-0.1875,-0.1839,-0.1835,-0.1837,-0.1839,-0.1833,-0.1833,-0.1825,-0.1829,-0.1847,-0.1848,-0.1848,-0.1849,0,-0.1881,-0.1895,-0.1861,-0.1866,-0.1867,-0.184,-0.1844,-0.1824,-0.1832,-0.1805,-0.1799,-0.181,-0.1788,-0.1799,-0.1776,-0.1782,-0.1735,-0.1744,-0.1737,-0.1738,-0.1703,-0.1705,-0.1587,-0.1572,-0.1684,-0.1683,-0.1682,0,-0.1827,-0.1803,-0.1807,-0.1796,-0.1795,-0.1776,-0.1767,-0.1786,-0.1774,-0.1767,-0.1748,-0.1729,-0.1715,-0.1678,-0.1682,-0.1665,-0.1673,-0.1633,-0.167,-0.1665,-0.167,-0.1671,-0.1668,-0.1625,-0.1623,-0.1622,-0.1621,0,-0.1729,-0.1738,-0.1724,-0.1713,-0.1701,-0.1693,-0.1686,-0.1675,-0.1694,-0.168,-0.1659,-0.1648,-0.1626,-0.1606,-0.1592,-0.1589,-0.1607,-0.161,-0.1601,-0.1594,-0.159,-0.159,-0.1714,-0.1612,-0.1613,-0.1614,-0.1614,-0.1615,-0.1655,-0.1636,-0.1636,-0.162,-0.1617,-0.1611,-0.1593,-0.1599,-0.1583,-0.1568,-0.158,-0.1555,-0.1551,-0.1533,-0.1528,-0.1508,-0.1524,-0.151,-0.1507,-0.1503,-0.1497,-0.1595,-0.1506,-0.1506,-0.1506,-0.1506,-0.1507,0,-0.1558,-0.156,-0.1545,-0.1536,-0.1523,-0.1545,-0.1539,-0.1526,-0.1505,-0.1501,-0.1487,-0.1463,-0.1445,-0.1448,-0.1431,-0.1414,-0.1422,-0.1409,-0.1409,-0.1408,-0.1485,-0.1494,-0.1403,-0.1403,-0.1403,-0.1403,-0.1403,-0.1403,-0.1505,-0.1473,-0.1482,-0.1448,-0.145,-0.1428,-0.1423,-0.1416,-0.1413,-0.1386,-0.1372,-0.1375,-0.1374,-0.1357,-0.134,-0.1342,-0.1333,-0.1316,-0.1321,-0.1392,-0.1402,-0.1412,-0.1421,-0.1315,-0.1315,-0.1245,-0.1244,-0.1244]},{"header":{"parameterUnit":"m.s-1","parameterCategory":1,"la1":30.2991,"la2":30.254,"lo1":-89.0895,"lo2":-89.0444,"dy":0.0017,"dx":0.0017,"nx":28,"ny":28,"refTime":"2024-10-14T21:00:00:Z","depth":0,"parameterNumber":3,"parameterNumberName":"V-component_of_WINDS"},"data":[0,0,0,0,0,0,0,0,0,0,0,0,0,0,0,0,0,0,0,0,0,0,0,0,0,0,0,0,0,0,0,0,0,0,0,0,0,0,0,0,0,0,0,0,0,0,0,0,0,0,0,0,0,0,0,0,0,0,-0.4106,-0.4107,0,-0.4163,-0.4163,-0.4164,-0.424,-0.4241,-0.4243,-0.4244,-0.43,-0.4301,-0.4301,0,0,0,0,0,0,0,0,0,0,0,0,0,-0.4068,-0.4068,-0.4106,-0.4107,-0.4108,-0.4163,-0.4163,-0.4164,-0.424,-0.4241,-0.4243,-0.4244,-0.43,-0.4301,-0.4301,0,0,0,0,0,0,0,0,0,0,0,0,0,-0.41,-0.4068,-0.4106,-0.4152,-0.4157,-0.4163,-0.4164,-0.4164,-0.424,-0.4242,-0.4243,-0.4245,-0.43,-0.4301,-0.4301,-0.4266,0,0,-0.4303,-0.4303,0,0,0,0,0,0,0,0,-0.4098,-0.4102,-0.4145,-0.4149,-0.4154,-0.4196,-0.4171,-0.4198,-0.4239,-0.4208,-0.4244,-0.4246,-0.4264,-0.4268,-0.4274,-0.4269,-0.4271,-0.4303,-0.4303,-0.4303,-0.4303,0,0,0,0,0,0,0,-0.4096,-0.41,-0.4129,-0.4145,-0.4151,-0.4171,-0.4178,-0.4176,-0.4225,-0.4211,-0.4217,-0.4222,-0.4267,-0.4273,-0.4276,-0.4272,-0.4303,-0.4303,-0.4303,-0.4304,-0.4248,-0.4246,0,0,0,0,0,0,-0.4087,-0.4097,-0.4127,-0.413,-0.413,-0.417,-0.4178,-0.4181,-0.4225,-0.4234,-0.4221,-0.4226,-0.4272,-0.4275,-0.4278,-0.4245,-0.4303,-0.4304,-0.4304,-0.425,-0.4248,-0.4246,0,0,0,0,0,0,-0.4085,-0.4088,-0.4125,-0.4115,-0.4122,-0.4169,-0.4172,-0.4181,-0.4188,-0.4232,-0.4241,-0.4218,-0.4273,-0.4278,-0.427,-0.4248,-0.4304,-0.4304,-0.4252,-0.4249,-0.4247,-0.4175,0,0,0,0,0,0,-0.4084,-0.4088,-0.4073,-0.4115,-0.4122,-0.4114,-0.417,-0.4181,-0.4188,-0.4195,-0.4232,-0.424,-0.4275,-0.4269,-0.4271,-0.425,-0.4305,-0.4254,-0.4251,-0.4248,-0.418,-0.417,-0.4162,0,0,0,0,0,-0.4082,-0.4049,-0.4072,-0.4075,-0.4105,-0.4113,-0.4117,-0.4158,-0.4186,-0.4174,-0.4204,-0.4239,-0.425,-0.4268,-0.427,-0.4249,-0.4256,-0.4252,-0.4248,-0.4183,-0.4172,-0.4162,0,0,0,0,0,0,-0.4002,-0.4055,-0.4081,-0.406,-0.4082,-0.4125,-0.411,-0.4144,-0.4157,-0.4163,-0.4214,-0.4221,-0.4209,-0.4228,-0.4247,-0.4221,-0.4259,-0.4255,-0.4209,-0.4198,-0.419,-0.4186,-0.4305,0,0,0,0,0,-0.3982,-0.3984,-0.403,-0.4007,-0.4017,-0.4062,-0.4066,-0.4097,-0.4121,-0.413,-0.4159,-0.4181,-0.4191,-0.4195,-0.4205,-0.4183,-0.4195,-0.417,-0.4161,-0.4154,-0.415,-0.4146,-0.4137,-0.4233,-0.4233,-0.4233,0,0,-0.3941,-0.397,-0.3967,-0.3992,-0.4012,-0.4015,-0.4069,-0.4067,-0.407,-0.413,-0.4126,-0.4149,-0.4177,-0.4163,-0.4159,-0.4179,-0.4127,-0.4149,-0.4142,-0.4143,-0.4141,-0.4132,-0.4124,-0.423,-0.4231,-0.4231,0,0,-0.3867,-0.3887,-0.3874,-0.3894,-0.3925,-0.3956,-0.3953,-0.3993,-0.4011,-0.4008,-0.4055,-0.406,-0.4073,-0.4093,-0.4105,-0.4046,-0.4081,-0.4048,-0.4003,-0.3998,-0.399,-0.3984,-0.3967,-0.396,-0.4044,-0.4044,-0.4044,0,-0.3811,-0.3816,-0.3862,-0.386,-0.3872,-0.3928,-0.3917,-0.3934,-0.3966,-0.3973,-0.3995,-0.4018,-0.404,-0.4035,-0.4022,-0.4028,-0.4029,-0.4044,-0.3988,-0.3982,-0.3977,-0.3961,-0.3955,-0.404,-0.404,-0.4041,-0.4041,0,-0.3749,-0.3752,-0.3737,-0.377,-0.378,-0.3772,-0.382,-0.3824,-0.3855,-0.3885,-0.3885,-0.3915,-0.3935,-0.3936,-0.3964,-0.3936,-0.3949,-0.3978,-0.4018,-0.3963,-0.395,-0.3944,-0.4034,-0.4036,-0.4037,-0.4038,0,0,-0.3624,-0.3687,-0.3681,-0.3699,-0.374,-0.3744,-0.3741,-0.3763,-0.3768,-0.3789,-0.3791,-0.3804,-0.3834,-0.3847,-0.3879,-0.3874,-0.3832,-0.3906,-0.3908,-0.3895,-0.381,-0.3789,-0.3781,-0.3856,-0.3855,-0.3854,-0.3809,0,-0.3561,-0.356,-0.3604,-0.3592,-0.3598,-0.3655,-0.3653,-0.3679,-0.3708,-0.3719,-0.3751,-0.3761,-0.3797,-0.3807,-0.3804,-0.3838,-0.3817,-0.3841,-0.386,-0.3861,-0.3854,-0.3774,-0.3751,-0.3706,-0.3803,-0.3802,-0.3802,0,-0.3486,-0.3507,-0.3496,-0.3544,-0.3548,-0.3545,-0.3573,-0.3581,-0.3613,-0.3635,-0.3653,-0.3691,-0.3695,-0.3732,-0.374,-0.3756,-0.3767,-0.3785,-0.3784,-0.379,-0.3829,-0.378,-0.3693,-0.3687,-0.3793,-0.3794,-0.3795,0,-0.3402,-0.3427,-0.3426,-0.3439,-0.3492,-0.3491,-0.3513,-0.3547,-0.356,-0.3583,-0.3592,-0.3615,-0.3628,-0.3646,-0.369,-0.3712,-0.3695,-0.3734,-0.3716,-0.3715,-0.3711,-0.3711,-0.3628,-0.3713,-0.3713,-0.3713,-0.3713,0,-0.3329,-0.3321,-0.3389,-0.3388,-0.3383,-0.3435,-0.3428,-0.3456,-0.3488,-0.3495,-0.3544,-0.355,-0.3608,-0.3621,-0.3656,-0.3661,-0.3665,-0.3685,-0.3695,-0.3682,-0.368,-0.3691,-0.3696,-0.3711,-0.3712,-0.3712,-0.3712,0,-0.3233,-0.3278,-0.3282,-0.3334,-0.3347,-0.3341,-0.3387,-0.339,-0.3423,-0.3432,-0.3438,-0.349,-0.3509,-0.3556,-0.3586,-0.361,-0.3607,-0.3622,-0.3596,-0.3603,-0.3584,-0.3586,-0.3506,-0.3501,-0.3586,-0.3585,-0.3584,0,-0.3185,-0.3181,-0.3234,-0.3244,-0.3265,-0.3278,-0.3292,-0.3344,-0.3357,-0.3398,-0.3397,-0.342,-0.3442,-0.347,-0.3512,-0.3537,-0.3556,-0.3527,-0.356,-0.355,-0.3561,-0.3562,-0.3564,-0.352,-0.3518,-0.3517,-0.3517,0,-0.3095,-0.312,-0.3138,-0.3166,-0.3182,-0.3205,-0.3232,-0.3237,-0.3296,-0.3309,-0.333,-0.3347,-0.3381,-0.3405,-0.3438,-0.3463,-0.3501,-0.3506,-0.3504,-0.3492,-0.3479,-0.349,-0.3579,-0.3508,-0.3509,-0.3509,-0.351,-0.351,-0.3025,-0.3026,-0.3066,-0.3086,-0.3113,-0.3138,-0.3145,-0.3181,-0.32,-0.3233,-0.3262,-0.3282,-0.3321,-0.3369,-0.3392,-0.3409,-0.3428,-0.3424,-0.3423,-0.3422,-0.3419,-0.3474,-0.3415,-0.3415,-0.3415,-0.3416,-0.3416,0,-0.2942,-0.2971,-0.299,-0.3028,-0.3045,-0.308,-0.3113,-0.3126,-0.3142,-0.3175,-0.3197,-0.3224,-0.325,-0.3295,-0.3325,-0.3331,-0.3349,-0.3337,-0.3338,-0.3345,-0.3398,-0.3399,-0.3322,-0.3322,-0.3322,-0.3322,-0.3322,-0.3322,-0.2901,-0.2907,-0.2936,-0.2958,-0.2988,-0.3008,-0.3025,-0.305,-0.3077,-0.3106,-0.3128,-0.3157,-0.3197,-0.3231,-0.3257,-0.327,-0.328,-0.3263,-0.3282,-0.3331,-0.334,-0.3349,-0.335,-0.3264,-0.3264,-0.3228,-0.3228,-0.3227]}]]